Three Rivers, MI

12:54 PM EST on December 07, 2016 (GMT -0500)
Three Rivers Municipal-Haines

Weather History for KHAI - April, 2013

Change the Weather History Date:

Thursday, April 25, 2013

  Actual Average Record
Temperature  
Mean Temperature 42 °F -  
Max Temperature 50 °F 61 °F 86 °F (1990)
Min Temperature 33 °F 37 °F 22 °F (1967)
Degree Days  
Heating Degree Days 23    
Moisture  
Dew Point 33 °F    
Average Humidity 76    
Maximum Humidity 92    
Minimum Humidity 49    
Precipitation  
Precipitation 0.00 in - - ()
Sea Level Pressure  
Sea Level Pressure 30.19 in    
Wind  
Wind Speed 8 mph (WSW)    
Max Wind Speed 24 mph    
Max Gust Speed 29 mph    
Visibility 10 miles    
Events Rain    
Averages and records for this station are not official NWS values.
T = Trace of Precipitation, MM = Missing Value Source: NWS Daily Summary

Daily Weather History Graph

Daily Weather History Graph

Search for Another Location

Airport or City:

Trip Planner

Search our weather history database for the weather conditions in past years. The results will help you decide how hot, cold, wet, or windy it might be!

Date:

Astronomy

Apr. 25, 2013 Rise Set
Actual Time 6:46 AM EDT 8:34 PM EDT
Civil Twilight 6:16 AM EDT 9:04 PM EDT
Nautical Twilight 5:40 AM EDT 9:41 PM EDT
Astronomical Twilight 5:01 AM EDT 10:20 PM EDT
Moon 8:47 PM EDT (4/25) 6:29 AM EDT (4/25)
Length of Visible Light 14h 48m
Length of Day
13h 48m
Full, 100% of the Moon is Illuminated
Apr 25
Full
Apr 25
Full
May 2
Last Quarter
May 9
New
May 18
First Quarter

Hourly Weather History & Observations

Time (EDT) Temp. Windchill Dew Point Humidity Pressure Visibility Wind Dir Wind Speed Gust Speed Precip Events Conditions
12:15 AM 34.7 °F 29.6 °F 30.6 °F 85% 30.14 in 10.0 mi SW 5.8 mph - N/A   Clear
12:35 AM 34.9 °F 29.9 °F 30.6 °F 84% 30.14 in 10.0 mi SSW 5.8 mph - N/A   Clear
12:54 AM 34.2 °F 29.0 °F 30.7 °F 87% 30.14 in 10.0 mi SSW 5.8 mph - N/A   Clear
1:15 AM 34.7 °F 28.8 °F 31.1 °F 87% 30.14 in 10.0 mi SSW 6.9 mph - N/A   Clear
1:34 AM 34.9 °F 29.0 °F 31.5 °F 87% 30.14 in 10.0 mi SW 6.9 mph - N/A   Clear
1:55 AM 35.1 °F 29.3 °F 31.6 °F 87% 30.13 in 10.0 mi SSW 6.9 mph - N/A   Clear
2:15 AM 34.7 °F 28.8 °F 31.6 °F 89% 30.12 in 10.0 mi SSW 6.9 mph - N/A   Clear
2:34 AM 35.6 °F 29.9 °F 32.0 °F 87% 30.13 in 10.0 mi SW 6.9 mph - N/A   Clear
2:55 AM 34.7 °F 29.6 °F 31.8 °F 89% 30.12 in 10.0 mi SSW 5.8 mph - N/A   Clear
3:15 AM 34.7 °F 29.6 °F 31.8 °F 89% 30.11 in 10.0 mi SSW 5.8 mph - N/A   Clear
3:35 AM 34.9 °F 28.3 °F 32.0 °F 89% 30.11 in 10.0 mi SSW 8.1 mph - N/A   Clear
3:55 AM 34.5 °F 28.6 °F 31.8 °F 90% 30.11 in 10.0 mi SSW 6.9 mph - N/A   Clear
4:15 AM 34.7 °F 28.1 °F 32.0 °F 90% 30.11 in 10.0 mi SSW 8.1 mph - N/A   Clear
4:35 AM 34.9 °F 29.0 °F 32.0 °F 89% 30.11 in 10.0 mi SSW 6.9 mph - N/A   Clear
4:55 AM 34.0 °F 28.0 °F 32.0 °F 92% 30.11 in 10.0 mi South 6.9 mph - N/A   Clear
5:14 AM 34.3 °F 27.7 °F 32.0 °F 91% 30.10 in 10.0 mi South 8.1 mph - N/A   Clear
5:35 AM 34.7 °F 28.1 °F 32.0 °F 90% 30.10 in 10.0 mi South 8.1 mph - N/A   Clear
5:55 AM 34.7 °F 27.5 °F 32.0 °F 90% 30.11 in 10.0 mi South 9.2 mph - N/A   Clear
6:14 AM 35.1 °F 27.9 °F 32.0 °F 89% 30.11 in 10.0 mi South 9.2 mph - N/A   Clear
6:35 AM 35.2 °F 28.8 °F 32.0 °F 88% 30.10 in 10.0 mi South 8.1 mph - N/A   Clear
6:55 AM 35.6 °F 29.2 °F 32.0 °F 87% 30.10 in 10.0 mi SSW 8.1 mph - N/A   Clear
7:14 AM 36.3 °F 29.5 °F 32.2 °F 85% 30.09 in 10.0 mi SSW 9.2 mph - N/A   Scattered Clouds
7:35 AM 37.0 °F 31.0 °F 32.5 °F 84% 30.10 in 10.0 mi SW 8.1 mph - N/A   Scattered Clouds
7:55 AM 38.3 °F 32.5 °F 33.1 °F 81% 30.10 in 10.0 mi SW 8.1 mph - N/A   Mostly Cloudy
8:15 AM 38.1 °F 32.9 °F 33.4 °F 83% 30.10 in 5.0 mi SW 6.9 mph 16.1 mph N/A Rain Light Rain
8:35 AM 37.6 °F 30.0 °F 34.3 °F 88% 30.10 in 7.0 mi SSW 11.5 mph - N/A Rain Light Rain
8:54 AM 37.8 °F 30.7 °F 35.1 °F 90% 30.11 in 10.0 mi SSW 10.4 mph - N/A   Light Drizzle
9:15 AM 38.5 °F 31.6 °F 35.8 °F 90% 30.11 in 10.0 mi SSW 10.4 mph - N/A   Overcast
9:35 AM 39.2 °F 32.5 °F 36.1 °F 89% 30.11 in 10.0 mi SSW 10.4 mph - N/A Rain Light Rain
9:55 AM 40.5 °F 34.6 °F 37.6 °F 89% 30.11 in 10.0 mi SW 9.2 mph - N/A   Overcast
10:15 AM 41.5 °F 35.4 °F 37.6 °F 86% 30.11 in 10.0 mi SW 10.4 mph - N/A   Overcast
10:35 AM 42.3 °F 38.6 °F 37.4 °F 83% 30.12 in 10.0 mi WSW 5.8 mph - N/A   Overcast
10:55 AM 44.2 °F 38.4 °F 37.6 °F 77% 30.12 in 10.0 mi West 11.5 mph - N/A   Light Drizzle
11:15 AM 45.3 °F 39.0 °F 37.0 °F 73% 30.12 in 10.0 mi West 13.8 mph 23.0 mph N/A   Scattered Clouds
11:35 AM 41.5 °F 37.1 °F 36.7 °F 83% 30.15 in 10.0 mi West 6.9 mph - N/A   Mostly Cloudy
11:55 AM 42.4 °F 35.0 °F 35.8 °F 77% 30.15 in 10.0 mi WSW 15.0 mph 23.0 mph N/A   Light Drizzle
12:15 PM 42.6 °F 37.8 °F 36.7 °F 79% 30.16 in 10.0 mi West 8.1 mph - N/A   Overcast
12:34 PM 43.0 °F 36.8 °F 35.1 °F 74% 30.17 in 10.0 mi West 11.5 mph 25.3 mph N/A   Drizzle
12:55 PM 45.0 °F 39.3 °F 35.6 °F 70% 30.17 in 7.0 mi WNW 11.5 mph - N/A Rain Rain
1:15 PM 46.2 °F 37.9 °F 37.6 °F 72% 30.18 in 10.0 mi West 24.2 mph 28.8 mph N/A   Mostly Cloudy
1:34 PM 42.4 °F 35.7 °F 37.4 °F 82% 30.19 in 7.0 mi WNW 12.7 mph - N/A Rain Light Rain
1:55 PM 46.9 °F - 39.2 °F 74% 30.19 in 10.0 mi West 19.6 mph 25.3 mph N/A   Mostly Cloudy
2:15 PM 46.6 °F - 35.4 °F 65% 30.20 in 10.0 mi NW 16.1 mph 26.5 mph N/A   Mostly Cloudy
2:34 PM 48.6 °F - 37.4 °F 65% 30.21 in 10.0 mi WNW 17.3 mph 20.7 mph N/A   Scattered Clouds
2:55 PM 47.7 °F - 34.7 °F 61% 30.22 in 10.0 mi WNW 17.3 mph 25.3 mph N/A   Scattered Clouds
3:15 PM 50.0 °F - 36.3 °F 59% 30.22 in 10.0 mi WNW 18.4 mph 25.3 mph N/A   Scattered Clouds
3:35 PM 47.7 °F - 32.0 °F 55% 30.23 in 10.0 mi NW 18.4 mph 25.3 mph N/A   Scattered Clouds
3:55 PM 48.9 °F - 32.9 °F 54% 30.23 in 10.0 mi WNW 19.6 mph 24.2 mph N/A   Scattered Clouds
4:15 PM 48.7 °F - 32.9 °F 54% 30.23 in 10.0 mi NW 18.4 mph 23.0 mph N/A   Mostly Cloudy
4:35 PM 48.9 °F - 30.4 °F 49% 30.24 in 10.0 mi NW 16.1 mph 25.3 mph N/A   Mostly Cloudy
4:55 PM 47.1 °F - 31.5 °F 55% 30.24 in 10.0 mi WNW 19.6 mph 23.0 mph N/A   Scattered Clouds
5:15 PM 49.1 °F - 31.6 °F 51% 30.25 in 10.0 mi West 18.4 mph 26.5 mph N/A   Scattered Clouds
5:35 PM 47.3 °F - 31.1 °F 53% 30.27 in 10.0 mi NW 11.5 mph - N/A   Scattered Clouds
5:55 PM 47.7 °F - 31.3 °F 53% 30.27 in 10.0 mi WNW 13.8 mph - N/A   Clear
6:14 PM 48.0 °F - 30.7 °F 51% 30.27 in 10.0 mi WNW 15.0 mph 19.6 mph N/A   Clear
6:35 PM 46.8 °F - 31.1 °F 55% 30.27 in 10.0 mi WNW 9.2 mph - N/A   Clear
6:55 PM 45.9 °F 40.4 °F 30.7 °F 56% 30.28 in 10.0 mi WNW 11.5 mph - N/A   Clear
7:14 PM 46.8 °F - 31.5 °F 55% 30.28 in 10.0 mi WNW 10.4 mph - N/A   Clear
7:35 PM 46.0 °F 41.0 °F 31.5 °F 57% 30.29 in 10.0 mi WNW 10.4 mph - N/A   Clear
7:55 PM 45.5 °F 41.3 °F 31.8 °F 59% 30.30 in 10.0 mi NW 8.1 mph - N/A   Scattered Clouds
8:15 PM 43.2 °F 39.0 °F 32.4 °F 66% 30.30 in 10.0 mi West 6.9 mph - N/A   Clear
8:35 PM 41.5 °F 38.6 °F 32.2 °F 69% 30.30 in 10.0 mi West 4.6 mph - N/A   Clear
8:55 PM 41.5 °F 39.6 °F 31.3 °F 67% 30.31 in 10.0 mi West 3.5 mph - N/A   Clear
9:15 PM 42.1 °F - 30.0 °F 62% 30.31 in 10.0 mi Calm Calm - N/A   Clear
9:35 PM 38.7 °F - 30.4 °F 72% 30.32 in 10.0 mi Calm Calm - N/A   Clear
9:55 PM 37.6 °F - 30.2 °F 75% 30.32 in 10.0 mi Calm Calm - N/A   Clear
10:15 PM 36.9 °F - 30.6 °F 78% 30.33 in 10.0 mi Calm Calm - N/A   Clear
10:35 PM 36.5 °F - 30.6 °F 79% 30.34 in 10.0 mi Calm Calm - N/A   Clear
10:55 PM 35.4 °F - 30.9 °F 84% 30.34 in 10.0 mi Calm Calm - N/A   Clear
11:15 PM 36.7 °F - 32.0 °F 83% 30.35 in 10.0 mi Calm Calm - N/A   Clear
11:35 PM 34.7 °F - 31.3 °F 87% 30.35 in 10.0 mi Calm Calm - N/A   Clear
11:55 PM 33.6 °F - 31.6 °F 92% 30.35 in 10.0 mi Calm Calm - N/A   Clear